Weather History for Dubuque, IA

Change the Weather History Date:

Thursday, March 14, 2013

  Actual Average Record
Temperature  
Mean Temperature 28 °F 34 °F  
Max Temperature 36 °F 43 °F 75 °F (2012)
Min Temperature 20 °F 26 °F -1 °F (1891)
Degree Days  
Heating Degree Days 37 30  
Month to date heating degree days 565 466  
Since 1 July heating degree days 5815 5859  
Cooling Degree Days 0 0  
Month to date cooling degree days 0 0  
Year to date cooling degree days 0 0  
Moisture  
Dew Point 24 °F    
Average Humidity 87    
Maximum Humidity 100    
Minimum Humidity 74    
Precipitation  
Precipitation 0.07 in 0.08 in 1.62 in (1990)
Month to date precipitation 2.11 0.95  
Year to date precipitation 5.53 3.56  
Snow  
Snow 1.00 in 0.30 in - ()
Month to date snowfall 7.9 3.3  
Since 1 July snowfall 49.8 36.9  
Snow Depth 1.00 in    
Sea Level Pressure  
Sea Level Pressure 30.21 in    
Wind  
Wind Speed 7 mph (SSE)    
Max Wind Speed 28 mph    
Max Gust Speed 30 mph    
Visibility 7 miles    
Events Fog , Snow    
T = Trace of Precipitation, MM = Missing Value Source: NWS Daily Summary

Daily Weather History Graph

Daily Weather History Graph

Search for Another Location

Airport:

Trip Planner

Search our weather history database for the weather conditions in past years. The results will help you decide how hot, cold, wet, or windy it might be!

Date:

Astronomy

Mar. 14, 2013 Rise Set
Actual Time 7:16 AM CDT 7:08 PM CDT
Civil Twilight 6:48 AM CDT 7:36 PM CDT
Nautical Twilight 6:15 AM CDT 8:09 PM CDT
Astronomical Twilight 5:42 AM CDT 8:42 PM CDT
Moon 8:25 AM CDT (3/14) 10:29 PM CDT (3/14)
Length of Visible Light 12h 48m
Length of Day
11h 52m
Waxing Crescent, 9% of the Moon is Illuminated
Mar 14
Waxing Crescent
Mar 19
First Quarter
Mar 27
Full
Apr 2
Last Quarter
Apr 10
New

Hourly Weather History & Observations

Time (CDT) Temp. Windchill Dew Point Humidity Pressure Visibility Wind Dir Wind Speed Gust Speed Precip Events Conditions
12:53 AM 19.9 °F 14.9 °F 16.0 °F 85% 30.35 in 10.0 mi SW 3.5 mph - N/A   Clear
1:53 AM 19.9 °F 14.9 °F 17.1 °F 89% 30.35 in 10.0 mi SW 3.5 mph - N/A   Clear
2:53 AM 21.0 °F - 17.1 °F 85% 30.33 in 10.0 mi Calm Calm - N/A   Clear
3:53 AM 21.0 °F - 17.1 °F 85% 30.30 in 10.0 mi Calm Calm - N/A   Clear
4:53 AM 21.0 °F 16.2 °F 17.1 °F 85% 30.28 in 10.0 mi SSE 3.5 mph - N/A   Clear
5:53 AM 21.9 °F - 18.0 °F 85% 30.31 in 10.0 mi Calm Calm - N/A   Overcast
6:53 AM 23.0 °F 17.0 °F 18.0 °F 81% 30.30 in 10.0 mi SSE 4.6 mph - N/A   Overcast
7:53 AM 24.1 °F 16.0 °F 19.0 °F 81% 30.28 in 10.0 mi South 6.9 mph - N/A   Overcast
8:53 AM 25.0 °F 14.2 °F 18.0 °F 75% 30.26 in 10.0 mi South 11.5 mph - N/A   Overcast
9:41 AM 24.8 °F 15.3 °F 19.4 °F 80% 30.23 in 1.2 mi South 9.2 mph - 0.00 in Snow Light Snow
9:53 AM 25.0 °F 15.5 °F 21.0 °F 85% 30.27 in 0.5 mi South 9.2 mph - 0.01 in Fog , Snow Snow
10:01 AM 24.8 °F 14.6 °F 21.2 °F 86% 30.21 in 0.2 mi SSE 10.4 mph - 0.01 in Fog , Snow Snow
10:09 AM 24.8 °F 15.3 °F 23.0 °F 93% 30.21 in 0.2 mi SSE 9.2 mph - 0.02 in Fog , Snow Heavy Snow
10:18 AM 24.8 °F 14.0 °F 23.0 °F 93% 30.20 in 0.2 mi South 11.5 mph - 0.04 in Fog , Snow Snow
10:26 AM 24.8 °F 12.9 °F 23.0 °F 93% 30.19 in 0.5 mi SSE 13.8 mph - 0.04 in Fog , Snow Snow
10:33 AM 24.8 °F 11.9 °F 24.8 °F 100% 30.19 in 0.2 mi SSE 16.1 mph - 0.05 in Fog , Snow Snow
10:37 AM 24.8 °F 11.9 °F 24.8 °F 100% 30.18 in 0.5 mi SSE 16.1 mph - 0.06 in Fog , Snow Snow
10:44 AM 24.8 °F 12.9 °F 24.8 °F 100% 30.17 in 1.2 mi SSE 13.8 mph - 0.06 in Snow Light Snow
10:53 AM 26.1 °F 14.5 °F 24.1 °F 92% 30.22 in 1.5 mi SSE 13.8 mph - 0.06 in Snow Light Snow
11:02 AM 26.6 °F 14.3 °F 24.8 °F 93% 30.15 in 2.0 mi SSE 16.1 mph - 0.00 in Snow Light Snow
11:09 AM 26.6 °F 15.2 °F 24.8 °F 93% 30.15 in 4.0 mi SSE 13.8 mph - 0.00 in Snow Light Snow
11:25 AM 26.6 °F 14.3 °F 24.8 °F 93% 30.17 in 7.0 mi South 16.1 mph - 0.00 in   Overcast
11:53 AM 28.0 °F 17.0 °F 26.1 °F 92% 30.20 in 5.0 mi SE 13.8 mph - 0.00 in   Overcast
12:00 PM 28.4 °F 18.0 °F 26.6 °F 93% 30.16 in 5.0 mi SE 12.7 mph - N/A   Overcast
12:53 PM 28.9 °F 19.8 °F 27.0 °F 92% 30.22 in 6.0 mi ESE 10.4 mph - N/A   Overcast
1:53 PM 30.9 °F 21.2 °F 27.0 °F 85% 30.18 in 7.0 mi SE 12.7 mph - N/A   Overcast
2:53 PM 33.1 °F 23.4 °F 27.0 °F 78% 30.17 in 10.0 mi SSE 13.8 mph - N/A   Mostly Cloudy
3:53 PM 34.0 °F 25.0 °F 28.9 °F 82% 30.14 in 10.0 mi SSE 12.7 mph - N/A   Clear
4:53 PM 35.1 °F 27.4 °F 28.9 °F 78% 30.14 in 10.0 mi SSE 10.4 mph - N/A   Clear
5:53 PM 35.1 °F 29.3 °F 28.9 °F 78% 30.17 in 10.0 mi SE 6.9 mph - N/A   Clear
6:20 PM 33.8 °F - 28.4 °F 81% 30.12 in 10.0 mi North - - N/A   Clear
6:53 PM 34.0 °F 31.0 °F 28.9 °F 82% 30.16 in 10.0 mi SE 3.5 mph - N/A   Clear
7:53 PM 32.0 °F 28.7 °F 28.9 °F 88% 30.15 in 10.0 mi SE 3.5 mph - N/A   Clear
8:53 PM 30.9 °F 27.5 °F 28.0 °F 89% 30.12 in 10.0 mi SSW 3.5 mph - N/A   Clear
9:53 PM 30.0 °F 24.1 °F 28.0 °F 92% 30.10 in 10.0 mi South 5.8 mph - N/A   Clear
10:53 PM 28.9 °F 25.2 °F 28.0 °F 96% 30.11 in 8.0 mi SSW 3.5 mph - N/A   Clear
11:53 PM 28.0 °F 22.8 °F 27.0 °F 96% 30.09 in 6.0 mi SSW 4.6 mph - N/A   Clear